Regional Weather Roundup
Issued by NWS Sterling, VA

Home | Current Version | Previous Version | Text Only | Print | Product List | Glossary Off
Versions: 1 2 3 4 5 6 7 8 9 10 11 12 13 14 15 16 17 18 19 20 21 22 23 24 25 26 27 28 29 30 31 32 33 34 35 36 37 38 39 40 41 42 43 44 45 46 47 48 49 50

000
ASUS41 KLWX 242110
RWRLWX

REGIONAL WEATHER ROUNDUP
NATIONAL WEATHER SERVICE BALTIMORE MD/WASHINGTON DC
500 PM EDT MON APR 24 2017

Note: "FAIR" indicates few or no clouds below 12,000 feet
with no significant weather and/or obstructions to visibility.
 TC=TEMPERATURE CELSIUS

 * =Non NWS site. Station does not report precipitation (e.g. rain,
    snow, etc.), thunder, or fog.

DCZ001-MDZ009-015-VAZ040>042-051-053>054-242200-
WASHINGTON METRO

CITY           SKY/WX    TMP DP  RH WIND       PRES   REMARKS
WASHINGTON NAT LGT RAIN  55  51  86 NE13      30.01F
DULLES         LGT RAIN  51  47  86 N10       30.02F FOG
ANDREWS AFB    DRIZZLE   54  50  84 NE14      29.99S
FT BELVOIR     LGT RAIN  53  50  90 N5        30.00S
QUANTICO       LGT RAIN  54  52  93 N12       30.00F
COLLEGE PARK*  CLOUDY    53  49  87 NE5       30.02S
LEESBURG*      RAIN      52  52 100 N6        30.04S
MANASSAS*      LGT RAIN  51  49  92 N7        30.02S

$$

MDZ006>007-011-014-242200-
BALTIMORE METRO

CITY           SKY/WX    TMP DP  RH WIND       PRES   REMARKS
BWI AIRPORT    LGT RAIN  55  49  80 E15       30.03S
MD SCIENCE CTR   N/A     59  44  57 MISG      30.05S
MARTIN STATE   CLOUDY    61  48  63 NE8       30.06S
ANNAPOLIS      CLOUDY    59  48  67 E9        30.02F
FORT MEADE*    CLOUDY    54  48  82 NE6       30.05S

$$

MDZ012-015-019>023-242200-
MARYLAND EASTERN SHORE

CITY           SKY/WX    TMP DP  RH WIND       PRES   REMARKS
OCEAN CITY     CLOUDY    54  51  90 NE14G24   29.98F
SALISBURY      LGT RAIN  54  53  97 NE15G22   29.99S FOG
BAY BRIDGE AP* CLOUDY    57  46  67 E9        30.02F
CAMBRIDGE*     CLOUDY    54  50  87 NE12G20   29.99F
EASTON*        CLOUDY    55  46  71 E15G25    30.05S

$$

MDZ017>025-242200-
SOUTHERN MARYLAND

CITY           SKY/WX    TMP DP  RH WIND       PRES   REMARKS
PATUXENT RIVER CLOUDY    55  52  89 NE13      29.98S
ST INIGOES     CLOUDY    55  50  83 NE21G26   29.95F
LEONARDTOWN*   CLOUDY    54  50  87 NE5       29.99S

$$

MDZ003>005-242200-
NORTH CENTRAL MARYLAND

CITY           SKY/WX    TMP DP  RH WIND       PRES   REMARKS
FREDERICK*     RAIN      55  54  94 CALM      30.07R
HAGERSTOWN APT CLOUDY    58  43  57 NE13      30.04R
WESTMINSTER*   RAIN      55  48  76 E6        30.06R

$$

MDZ501>502-242200-
WESTERN MARYLAND

CITY           SKY/WX    TMP DP  RH WIND       PRES   REMARKS
OAKLAND*         N/A     46  39  76 E17G28    29.99S
CUMBERLAND*    CLOUDY    61  41  48 NE5       30.07R

$$

VAZ025>031-242200-
SHENANDOAH VALLEY

CITY           SKY/WX    TMP DP  RH WIND       PRES   REMARKS
WINCHESTER*    LGT RAIN  50  46  87 CALM      30.04S
FRONT ROYAL*   CLOUDY    50  50 100 NE6       30.03R
LURAY*         LGT RAIN  50  50 100 N13       30.00S
NEW MARKET*    CLOUDY    51  49  92 N12       29.99F
STAUNTON*      DRIZZLE   51  50  97 N6        29.98F
WAYNESBORO*    CLOUDY    50  50 100 N8        29.97S

$$

WVZ021-048>050-054>055-242200-
EASTERN WEST VIRGINIA PANHANDLE

CITY           SKY/WX    TMP DP  RH WIND       PRES   REMARKS
MARTINSBURG    LGT RAIN  56  44  64 E5        30.03R
PETERSBURG*    LGT RAIN  52  50  92 N3        30.03S

$$

VAZ036>039-050-242200-
CENTRAL FOOTHILLS

CITY           SKY/WX    TMP DP  RH WIND       PRES   REMARKS
CHARLOTTESVILL LGT RAIN  53  50  89 NE16G23   29.97S FOG
CULPEPER*      LGT RAIN  51  51  97 NE8       30.02S
ORANGE*        CLOUDY    50  48  93 NE12      29.98S
GORDONSVILLE*  CLOUDY    51  50  97 NE13G18   29.97S
WARRENTON*     LGT RAIN  52  48  87 NE9       30.00S

$$

VAZ055>057-242200-
NORTH AND CENTRAL PIEDMONT

CITY           SKY/WX    TMP DP  RH WIND       PRES   REMARKS
FREDERICKSBRG* LGT RAIN  53  53 100 N8        29.98S
STAFFORD*      CLOUDY    51  51 100 N9        30.02F FOG

$$

NCZ024-NYZ072-PAZ021-071-VAZ022-071-242200-
OTHER REGIONAL OBSERVATIONS

CITY           SKY/WX    TMP DP  RH WIND       PRES   REMARKS
NEW YORK CITY  CLOUDY    59  45  59 VRB3      30.17R
PHILADELPHIA   CLOUDY    58  43  57 E14       30.09F
PITTSBURGH     CLOUDY    59  41  51 E16G22    30.00S
ROANOKE        LGT RAIN  53  51  93 NE10      29.91S
RICHMOND       LGT RAIN  57  56  96 NE18      29.90F FOG
RALEIGH        RAIN      56  55  97 NE13      29.77F FOG

$$

ANZ530>537-242200-
MARINE OBSERVATIONS

STATION/POSITION TIME  TEMP    WIND        PRES
                       AIR SEA DIR/SP/G
                 (UTC) (F)     (DEG/KT/KT) (MB)
THOMAS PT LIGHT  2100   57 57   70/ 18/ 22   N/A
BALT KEY BRIDGE  2048   57      70/ 10/ 12 1017.0F
COVE POINT       2048   55      40/ 11/ 14 1016.0F
LEWISETTA        2048   56 61   70/ 18/ 23 1013.9F
SOLOMONS ISLAND  2048   55 60   40/ 10/ 14   N/A
PINEY POINT      2048           70/  9/ 14   N/A

$$




USA.gov is the U.S. government's official web portal to all federal, state and local government web resources and services.